This demonstration page uses our WeatherBlox Daily Observations layout. Learn more.

Left ArrowRight Arrow

34.74481, -87.66753

Hourly Observations for May 26, 2020

Temp ( °F °C ) Dew Point ( °F °C ) Humidity (%) Winds ( mph kmh ) Pressure ( in mb ) Visibility ( mi km ) Precip ( " mm )
12:53 am 00:53 Clear 77 25 64 17.8 64 64 SE 8 13 29.94 1014 10 16 0.00 0.00
1:53 am 01:53 Clear 76 24.4 64 17.8 67 67 SE 9 15 29.93 1014 10 16 0.00 0.00
2:53 am 02:53 Clear 75 23.9 65 18.3 71 71 ESE 7 11 29.93 1014 10 16 0.00 0.00
3:53 am 03:53 Clear 74 23.3 65 18.3 74 74 ESE 6 9 29.94 1014 10 16 0.00 0.00
4:53 am 04:53 Mostly Clear 72 22.2 67 19.4 84 84 E 5 7 29.94 1014 10 16 0.00 0.00
5:53 am 05:53 Sunny 72 22.2 67 19.4 84 84 ESE 7 11 29.95 1014 10 16 0.00 0.00
6:53 am 06:53 Sunny 74 23.3 67 19.4 79 79 ESE 8 13 29.96 1015 10 16 0.00 0.00
7:53 am 07:53 Partly Cloudy with Light Rain 74 23.3 68 20 82 82 ESE 8 13 29.98 1015 10 16 0.00 0.00
8:53 am 08:53 Partly Cloudy 75 23.9 69 20.6 82 82 SE 9 15 29.98 1015 10 16 0.03 0.76
9:53 am 09:53 Mostly Sunny 77 25 68 20 74 74 SE 12 19 29.98 1015 10 16 0.00 0.00
10:53 am 10:53 Mostly Cloudy 78 25.6 67 19.4 69 69 ESE 8 13 29.98 1015 10 16 0.00 0.00
11:07 am 11:07 Mostly Cloudy 79 26.1 67 19.4 67 67 ESE 10 17 29.98 1015 10 16 0.00 0.00
11:16 am 11:16 Partly Cloudy 81 27.2 68 20 65 65 ESE 13 20 29.96 1015 10 16 0.00 0.00
11:53 am 11:53 Cloudy 80 26.7 66 18.9 62 62 SE 12 19 29.96 1015 10 16 0.00 0.00
12:27 pm 12:27 Cloudy with Rain 73 22.8 68 20 84 84 S 10 17 29.97 1015 10 16 0.04 1.02
12:34 pm 12:34 Cloudy with Light Rain 73 22.8 69 20.6 87 87 SSE 12 19 29.97 1015 10 16 0.05 1.27
12:53 pm 12:53 Cloudy with Light Rain 73 22.8 68 20 84 84 SSE 13 20 29.98 1015 10 16 0.07 1.78
1:16 pm 13:16 Cloudy with Light Rain 73 22.8 68 20 84 84 SE 6 9 29.98 1015 10 16 0.01 0.25
1:25 pm 13:25 Cloudy with Rain 72 22.2 68 20 87 87 SSE 12 19 29.97 1015 10 16 0.03 0.76
1:53 pm 13:53 Cloudy with Heavy Rain 71 21.7 68 20 90 90 ESE 7 11 29.97 1015 8 13 0.15 3.81
2:11 pm 14:11 Cloudy with Light Rain 72 22.2 68 20 87 87 SE 8 13 29.97 1015 10 16 0.02 0.51
2:19 pm 14:19 Cloudy with Light Rain 72 22.2 68 20 87 87 SE 6 9 29.97 1015 10 16 0.02 0.51
2:28 pm 14:28 Cloudy with Light Rain 72 22.2 68 20 87 87 SE 7 11 29.96 1015 10 16 0.03 0.76
2:53 pm 14:53 Cloudy with Light Rain 71 21.7 67 19.4 87 87 SE 13 20 29.96 1015 10 16 0.07 1.78
3:53 pm 15:53 Cloudy with Heavy Rain 71 21.7 67 19.4 87 87 SE 13 20 29.96 1015 10 16 0.16 4.06
4:08 pm 16:08 Cloudy with Heavy Rain 70 21.1 67 19.4 90 90 ESE 10 17 29.96 1014 10 16 0.06 1.52
4:16 pm 16:16 Cloudy with Rain 70 21.1 66 18.9 87 87 SE 14 22 29.96 1014 10 16 0.08 2.03
4:26 pm 16:26 Cloudy with Rain 70 21.1 66 18.9 87 87 SE 13 20 29.96 1014 10 16 0.11 2.79
4:53 pm 16:53 Cloudy with Light Rain 70 21.1 66 18.9 87 87 ESE 9 15 29.95 1014 10 16 0.16 4.06
5:36 pm 17:36 Cloudy with Light Rain 70 21.1 67 19.4 90 90 ESE 9 15 29.94 1014 10 16 0.02 0.51
5:51 pm 17:51 Cloudy with Light Rain 70 21 66 19 88 88 ESE 6 9 29.94 1014 10 16 0.03 0.76
5:53 pm 17:53 Cloudy with Light Rain 71 21.7 67 19.4 87 87 ESE 5 7 29.93 1014 10 16 0.04 1.02
6:07 pm 18:07 Cloudy with Light Rain 71 21.7 67 19.4 87 87 ESE 7 11 29.93 1014 10 16 0.00 0.00
6:53 pm 18:53 Cloudy with Light Rain 71 21.7 68 20 90 90 ESE 9 15 29.92 1013 10 16 0.01 0.25
7:06 pm 19:06 Cloudy with Light Rain 71 21.7 68 20 90 90 ESE 10 17 29.92 1013 10 16 0.00 0.00
7:53 pm 19:53 Mostly Cloudy 71 21.7 68 20 90 90 SE 7 11 29.93 1014 10 16 0.01 0.25
8:53 pm 20:53 Cloudy 71 21.7 67 19.4 87 87 ESE 6 9 29.95 1014 10 16 0.00 0.00
9:53 pm 21:53 Cloudy 70 21.1 67 19.4 90 90 E 5 7 29.95 1014 10 16 0.00 0.00
10:31 pm 22:31 Cloudy 71 21.7 67 19.4 87 87 SE 6 9 29.95 1014 10 16 0.00 0.00
10:53 pm 22:53 Cloudy 71 21.7 67 19.4 87 87 ESE 6 9 29.94 1014 10 16 0.00 0.00
11:34 pm 23:34 Cloudy 70 21.1 67 19.4 90 90 ESE 7 11 29.94 1014 10 16 0.00 0.00
11:53 pm 23:53 Cloudy with Light Rain 70 21.1 67 19.4 90 90 SE 8 13 29.93 1014 10 16 0.00 0.00

Powered by AerisWeather